Location: Milton
(43.5183°N, 79.8775°W)
Time: 07:59:17
(UTC+00:00)

UNISAT 6 - Visible Passes

Search period start: 14 April 2024 00:00
Search period end: 24 April 2024 00:00
Orbit: 594 x 670 km, 97.7° (Epoch: 13 April)

Date Brightness Start Highest point End Pass type
(mag) Time Alt. Az. Time Alt. Az. Time Alt. Az.
14 Apr ? 08:57:54 10° SSE 09:02:19 59° ENE 09:06:41 10° N visible
15 Apr ? 07:46:10 10° ENE 07:47:31 11° ENE 07:48:51 10° NE visible
15 Apr ? 09:18:45 10° SSE 09:23:15 83° WSW 09:27:40 10° NNW visible
16 Apr ? 08:05:15 10° ESE 08:08:12 18° ENE 08:11:08 10° NNE visible
16 Apr ? 09:39:52 10° S 09:44:13 49° W 09:48:30 10° NNW visible
17 Apr ? 08:25:12 10° SE 08:28:57 27° ENE 08:32:40 10° N visible
17 Apr ? 10:01:19 10° SSW 10:05:14 30° W 10:09:06 10° NW visible
18 Apr ? 08:45:32 10° SE 08:49:45 44° ENE 08:53:54 10° N visible
19 Apr ? 09:06:10 10° SSE 09:10:36 73° ENE 09:14:58 10° N visible
20 Apr ? 07:53:32 10° E 07:55:38 13° ENE 07:57:45 10° NNE visible
20 Apr ? 09:27:05 10° S 09:31:30 67° W 09:35:50 10° NNW visible
21 Apr ? 08:13:02 10° ESE 08:16:18 21° ENE 08:19:32 10° NNE visible
21 Apr ? 09:48:17 10° SSW 09:52:26 39° W 09:56:31 10° NNW visible
22 Apr ? 08:33:06 10° SE 08:37:02 33° ENE 08:40:54 10° N visible
23 Apr ? 08:53:31 10° SSE 08:57:48 53° ENE 09:02:01 10° N visible
